Temp
19 19 19 21 22 23 23 23 24 26 27 24 24 25 26 26 26 26 26 27 27 26 28 26 25 24 20 19 18 18 17 17 17 17 16 15 15 17 19 19 17 15 17 17
18 18 20 19 19 20 20 20 22 24 24 22 23 24 27 28 26 26 27 27 27 27 27 27 25 24 20 20 18 18 17 16 16 16 15 15 16 16 19 19 18 15 16 17
14 16 17 16 16 17 18 18 19 21 23 23 22 22 24 26 26 26 26 27 27 27 26 27 26 24 21 19 17 17 17 16 16 15 15 16 17 18 19 19 17 16 16 16
13 16 14 14 14 15 15 18 19 19 20 20 23 20 23 24 25 25 25 25 26 26 27 27 27 26 24 22 19 17 16 16 16 15 15 15 15 17 19 19 18 16 16 16
13 14 14 13 14 14 14 16 17 18 19 20 21 21 22 25 26 25 26 25 26 26 26 26 26 26 25 23 21 18 17 16 15 15 15 16 16 17 18 19 19 17 16 16
15 16 15 14 14 14 14 14 15 16 16 17 19 21 22 23 24 25 25 25 25 26 26 26 25 25 25 25 22 19 17 16 15 15 15 16 16 16 16 18 19 19 17 16
14 14 15 14 13 13 13 13 11 12 14 15 19 19 21 23 25 25 24 23 23 23 23 23 24 24 24 24 23 20 17 16 15 15 15 16 16 16 16 18 18 19 17 15
11 11 11 12 11 10 10 12 12 11 13 15 18 18 21 23 22 21 20 19 20 21 20 21 21 21 22 22 23 21 18 16 15 15 15 15 16 16 15 17 17 19 19 16
9 10 13 12 11 10 11 11 14 12 11 12 17 19 17 14 15 19 19 18 18 18 18 18 19 19 19 20 20 21 20 17 15 15 15 15 16 16 16 16 16 18 19 19
9 8 12 11 10 9 10 8 11 10 9 13 17 17 11 10 12 14 15 15 15 16 16 16 17 17 17 17 18 19 20 19 16 15 15 15 15 16 16 15 15 16 18 19
8 9 11 11 7 7 10 10 11 14 12 11 15 9 8 9 10 11 11 12 14 14 15 15 15 15 15 15 16 17 18 19 18 15 15 15 15 16 16 16 16 16 17 18
9 9 9 8 8 8 8 11 12 13 11 10 10 9 10 10 10 11 12 12 13 13 13 13 13 12 13 13 14 16 18 18 20 18 16 16 16 16 17 16 16 17 17 18
10 12 11 11 10 9 8 10 11 12 12 10 9 9 11 10 10 10 9 10 11 11 11 11 10 10 10 10 11 13 15 19 18 20 18 16 16 16 16 16 17 17 17 18
10 9 8 7 6 6 6 7 9 9 8 8 6 7 8 7 7 7 8 8 9 9 9 8 8 7 7 7 8 10 13 16 20 19 19 19 17 17 16 17 17 17 18 18
7 6 6 7 7 7 6 6 6 6 6 6 6 6 5 5 5 5 6 6 6 6 6 6 5 5 4 5 6 7 9 13 20 20 20 19 19 17 17 17 17 18 17 18
7 7 6 7 8 8 6 6 6 5 4 5 6 6 4 5 6 5 4 4 4 4 4 4 3 3 3 4 4 4 6 10 15 21 20 19 19 18 16 16 17 17 17 17
7 7 8 8 9 9 6 4 3 4 3 3 3 3 3 4 4 3 2 2 2 2 2 2 2 2 2 2 2 3 5 8 13 19 20 20 19 18 17 16 16 17 17 17
7 7 8 9 8 6 4 3 3 4 4 3 3 3 2 2 3 3 1 1 1 1 1 0 -0 -0 1 1 1 2 5 8 11 15 20 19 19 17 16 16 15 16 17 17
7 7 8 8 7 5 5 4 4 3 4 3 3 3 2 3 4 3 1 0 0 -0 -1 -1 -1 -0 0 -0 0 3 4 5 7 8 11 13 17 17 16 15 15 15 15 15
11 10 9 8 6 5 4 4 7 5 6 5 4 3 2 3 3 2 0 -0 -1 -1 -2 -2 -2 -0 -1 -1 0 2 2 3 4 5 6 8 11 14 16 15 14 14 14 14
9 9 9 9 7 6 4 6 9 6 4 4 5 4 3 2 1 1 -0 -0 -1 -1 -1 -2 -2 -1 -1 -1 -1 0 1 1 2 4 6 7 8 10 13 14 14 13 13 13
6 7 7 9 7 5 5 7 5 4 5 7 7 6 5 4 2 1 0 -0 -1 -1 -1 -1 -2 -1 -2 -2 -1 -0 0 1 2 3 5 6 7 9 11 12 13 13 13 12
6 6 6 5 5 4 6 4 6 8 7 8 7 7 7 6 5 4 2 2 2 2 1 -0 -1 -1 -1 -2 -2 -1 -1 -0 1 2 2 4 4 7 10 11 12 12 12 11
9 10 8 6 6 6 8 9 9 9 8 8 8 8 8 7 7 7 5 5 4 3 2 1 -0 -0 -1 -2 -2 -1 -1 -1 0 1 1 2 3 4 4 6 8 9 10 11
10 10 10 9 9 10 9 9 9 9 9 9 8 8 8 7 7 7 6 6 5 4 3 3 1 1 1 0 -1 -1 -0 -1 -0 0 0 0 1 2 3 3 3 1 0 2
10 9 8 7 9 9 9 10 9 10 9 9 8 8 8 7 7 6 6 5 5 4 4 3 3 2 2 2 0 1 2 1 -1 -0 -1 -1 -0 0 1 1 2 2 1 1
Height
783 782 776 763 757 752 752 748 738 728 724 743 748 745 737 736 744 747 747 746 750 757 756 761 766 771 782 791 795 800 806 811 817 821 827 835 840 847 850 853 857 861 865 868
789 781 773 771 768 761 759 758 750 739 736 752 751 743 728 723 735 739 740 743 746 749 752 758 766 768 778 786 791 796 801 807 812 819 816 831 838 844 849 851 855 858 862 865
802 792 786 790 785 780 773 769 761 755 740 745 755 754 741 726 729 733 735 738 740 746 751 753 760 766 773 782 787 792 797 802 809 814 820 828 837 835 846 849 854 854 858 862
808 795 801 801 796 788 780 769 765 761 755 750 737 756 741 734 732 734 737 740 740 743 746 749 753 759 765 773 783 789 794 799 804 809 816 823 828 824 838 842 847 851 854 858
805 802 800 799 795 793 788 777 769 762 754 750 738 744 732 715 714 722 726 734 736 740 743 747 752 753 759 768 777 784 790 795 801 805 811 817 823 827 829 836 842 844 849 853
795 786 789 789 789 791 789 788 780 770 764 753 746 737 731 725 722 721 725 728 734 737 741 745 751 756 757 761 771 780 786 790 795 800 805 811 817 822 826 831 833 837 842 846
795 788 788 794 793 791 788 786 786 778 759 757 743 743 729 718 712 716 729 738 746 749 751 758 756 757 759 760 764 774 782 787 790 795 800 805 811 816 819 821 824 828 829 838
806 801 808 801 806 802 798 782 780 780 757 752 742 739 730 722 728 736 746 757 759 760 764 766 766 764 764 763 764 767 776 782 787 790 794 799 804 810 813 817 816 819 817 822
821 806 796 799 801 802 790 782 770 771 788 774 733 729 748 756 760 750 756 764 768 774 777 776 773 773 771 769 768 766 770 777 781 786 790 793 798 803 806 810 814 816 816 817
826 821 793 800 802 805 796 807 785 788 800 758 733 732 779 792 783 775 775 781 783 781 782 780 777 774 775 773 770 769 767 771 776 780 785 787 792 796 801 805 808 810 812 815
832 825 801 798 817 807 794 794 785 766 772 768 737 795 810 802 797 796 796 793 791 788 787 783 780 777 776 774 772 770 768 766 769 773 778 782 786 790 794 798 802 804 807 812
829 821 814 822 821 813 803 784 777 767 777 784 778 801 808 802 802 799 796 797 794 793 791 787 784 779 776 774 771 767 764 764 762 765 770 774 780 783 786 790 795 798 800 805
824 807 801 800 806 810 814 801 789 780 780 792 798 798 804 810 809 807 808 800 797 794 792 792 789 784 779 775 771 767 761 755 758 758 760 765 770 773 777 781 787 791 794 798
835 833 836 844 852 848 840 825 813 810 815 811 824 817 823 823 820 813 811 809 804 800 798 796 793 787 782 776 771 765 757 750 748 751 753 755 759 764 769 774 777 782 786 790
848 852 853 848 852 846 846 847 843 842 843 837 844 835 841 833 828 829 822 817 813 805 801 798 793 788 782 775 769 762 755 747 740 742 745 747 752 757 762 765 768 772 777 780
850 847 851 848 841 835 846 855 855 855 855 846 835 836 847 841 834 830 829 824 818 811 804 799 793 787 781 775 767 760 753 744 737 732 735 741 745 749 752 756 760 764 768 772
847 843 842 843 832 831 856 874 876 874 872 868 858 864 856 845 839 839 838 831 825 817 809 801 794 788 779 773 766 758 749 742 733 726 728 734 739 741 744 749 753 755 759 764
851 850 840 837 840 857 886 886 885 879 877 874 871 866 861 855 846 844 841 835 827 819 812 803 794 787 780 772 763 754 746 739 732 726 723 728 732 735 739 742 745 747 751 756
854 851 848 846 849 876 879 883 883 882 878 878 873 870 866 856 844 839 840 835 827 818 811 803 797 787 779 770 763 754 744 736 733 728 725 724 724 728 733 736 738 743 747 750
842 841 847 851 865 882 891 885 869 875 860 873 871 870 865 856 841 845 843 837 828 821 815 808 799 789 781 774 765 757 747 741 737 733 728 725 724 724 727 731 734 739 742 744
855 852 850 850 860 883 893 880 864 869 886 880 868 868 867 863 866 859 851 842 836 827 819 810 799 790 783 773 764 754 748 743 740 734 729 726 725 724 724 725 728 732 735 737
880 870 867 857 865 883 891 882 883 892 883 871 868 866 863 862 860 856 851 839 834 826 821 807 798 792 784 775 765 757 752 746 740 735 732 728 725 721 722 722 723 725 728 730
885 891 887 889 895 898 891 894 886 881 877 871 869 867 861 857 854 851 850 844 836 830 820 815 807 796 786 776 770 767 760 750 746 738 735 731 726 722 720 720 719 719 721 723
876 874 880 889 894 891 883 881 879 878 876 873 869 866 862 857 852 847 845 840 835 828 824 820 810 800 790 781 775 772 765 757 751 746 740 735 730 728 724 721 720 719 718 717
878 875 874 880 880 877 880 881 880 877 876 874 872 868 865 861 855 849 845 841 837 831 825 819 814 809 800 793 784 777 772 765 760 753 746 741 739 737 734 732 730 730 728 722
880 883 882 887 883 881 882 882 881 877 877 876 873 869 866 862 859 855 850 847 842 836 832 825 819 814 808 803 797 788 782 774 766 760 757 754 750 747 742 740 736 735 735 724
Wind_Speed
10 13 15 19 20 25 23 26 27 15 15 15 19 22 24 17 13 13 12 11 14 16 14 13 19 22 25 28 31 32 30 32 34 30 28 24 23 18 17 19 17 27 22 23
12 17 14 15 20 20 18 22 24 19 10 6 13 20 20 20 19 17 18 16 15 14 16 17 15 19 24 27 27 30 31 34 34 28 31 27 20 19 18 17 20 24 27 25
16 18 18 15 17 18 19 21 21 22 20 20 17 20 22 20 15 18 16 14 13 15 14 16 17 19 26 27 30 30 33 36 35 30 29 29 19 16 19 19 20 24 27 27
9 9 9 14 19 20 22 22 24 24 22 20 21 17 22 24 23 21 19 21 19 18 16 14 17 20 21 26 28 32 32 33 36 36 34 31 26 25 25 26 23 23 30 28
11 12 13 16 17 17 22 22 22 23 23 23 25 17 15 20 24 29 19 14 13 15 17 16 14 18 22 23 26 30 30 35 34 39 36 33 31 26 27 26 24 24 31 30
14 15 11 13 13 14 16 20 20 18 19 18 26 20 15 15 12 10 11 12 10 8 10 6 14 16 16 21 24 26 31 32 38 40 37 37 35 29 24 25 26 26 27 30
20 12 8 5 12 8 17 15 12 14 16 13 23 23 16 3 4 11 12 9 5 4 0 2 5 10 13 16 23 26 27 29 36 39 38 38 35 36 35 31 31 33 30 32
11 12 10 8 17 17 14 14 12 17 16 16 23 23 20 9 5 12 12 6 4 4 6 5 5 6 5 9 18 22 26 29 33 37 38 39 38 35 37 39 32 34 32 33
9 8 15 6 10 10 5 13 16 20 8 9 15 15 20 21 20 10 9 3 6 7 9 9 8 7 7 8 12 16 22 27 32 34 38 37 37 36 36 35 36 30 30 28
6 9 8 10 4 10 15 6 7 4 4 9 14 16 8 13 11 11 11 12 14 13 12 12 12 11 11 11 12 15 17 26 29 35 35 38 37 37 34 28 29 36 32 30
4 4 9 10 10 15 6 7 8 10 7 4 9 5 6 11 10 12 11 11 11 13 14 14 16 17 16 15 15 16 19 22 29 34 37 38 37 35 34 31 30 32 33 31
8 5 3 7 20 12 12 7 8 9 2 2 5 6 10 16 14 11 12 12 14 15 15 14 19 20 20 19 17 18 22 26 28 31 35 37 38 37 36 36 32 29 30 29
13 10 11 1 23 22 21 21 6 8 8 11 5 5 15 19 17 14 15 18 18 18 18 16 17 19 20 22 21 21 24 26 30 33 33 37 39 38 36 39 40 36 31 31
6 18 17 13 11 15 14 26 25 17 7 7 11 13 21 19 19 17 19 20 20 19 18 17 15 19 22 24 23 23 25 29 30 32 33 33 40 38 37 36 40 39 37 34
1 10 19 16 20 22 27 26 26 26 18 10 13 11 20 19 18 16 18 19 20 20 19 18 17 17 23 25 25 24 25 28 28 32 32 35 31 35 36 39 38 38 37 36
3 9 7 7 6 26 27 27 26 26 26 22 18 16 23 19 17 17 19 20 19 20 20 20 18 23 24 26 26 27 26 26 24 31 31 31 32 31 34 37 39 37 35 34
5 3 3 4 10 7 18 19 20 20 22 20 16 20 21 23 20 18 19 20 19 19 19 19 18 22 25 25 26 27 27 25 24 23 30 28 30 30 31 32 36 36 34 32
4 3 4 2 6 9 3 13 8 12 17 19 18 20 20 21 19 13 19 20 19 20 21 18 24 27 24 25 26 28 22 17 17 18 23 27 27 27 29 29 31 27 30 32
9 2 5 4 11 5 17 15 11 8 16 17 16 17 18 20 11 14 23 21 18 18 27 28 30 26 25 25 27 21 18 19 15 14 9 10 19 28 28 28 28 27 25 27
14 14 7 10 6 7 13 16 18 8 8 20 14 13 17 17 15 13 23 25 26 31 31 31 31 22 24 26 24 17 19 19 19 18 15 12 10 13 24 26 27 28 30 33
7 7 12 9 6 5 10 16 14 12 8 17 12 10 11 12 8 15 21 22 27 29 28 30 25 24 26 29 27 24 24 25 23 20 15 13 12 14 14 27 30 28 27 27
8 4 5 6 5 6 12 8 8 4 10 14 15 15 8 1 3 6 12 17 23 26 27 32 28 24 28 34 31 30 29 30 26 22 17 15 16 15 17 16 23 28 26 26
5 7 4 7 4 3 5 4 5 6 10 14 14 15 16 15 12 8 9 12 17 20 26 28 29 27 32 40 35 31 33 34 27 26 24 22 22 22 9 13 18 19 24 24
11 6 5 2 4 3 4 8 8 10 11 12 14 14 16 17 18 17 13 17 19 24 25 27 29 32 36 40 40 36 39 36 30 28 29 28 29 27 36 23 14 12 8 16
3 2 7 8 8 1 10 10 9 9 12 12 16 16 17 16 18 20 17 24 26 25 29 28 29 29 32 35 39 39 39 39 32 31 33 32 29 28 24 24 34 27 33 24
6 5 5 3 5 6 8 9 10 10 11 13 13 15 19 20 18 22 22 25 26 26 28 30 32 32 33 34 35 38 36 36 34 35 33 32 29 28 27 25 24 26 26 40
Wind_Direction
325 295 260 265 248 254 260 270 272 269 224 205 226 245 237 182 199 195 196 204 198 204 208 196 201 177 181 190 185 181 179 179 179 177 170 171 176 195 196 196 190 199 194 193
276 259 268 312 303 291 266 270 253 255 235 200 244 247 238 215 202 214 211 207 205 203 206 191 193 203 183 194 197 188 185 182 183 186 163 171 177 191 208 192 198 198 199 198
320 304 322 313 291 279 262 261 261 258 246 221 232 250 252 244 227 222 228 235 225 213 211 213 193 205 184 193 193 192 191 187 185 179 168 171 184 169 213 207 201 200 202 203
298 337 312 296 292 290 273 261 262 259 253 241 206 249 234 235 238 229 234 233 228 226 219 223 209 203 202 193 198 195 190 186 182 178 178 182 186 170 209 209 200 202 202 207
325 303 295 287 285 292 286 287 274 267 247 249 242 232 245 245 226 214 213 229 228 226 227 210 224 212 211 195 196 198 190 187 185 183 186 188 190 198 192 202 204 195 202 207
295 291 286 291 298 279 278 264 264 255 255 234 235 236 228 234 216 194 216 195 194 200 192 223 194 218 225 202 199 195 195 189 189 191 191 192 194 196 196 202 199 206 200 201
319 345 348 323 289 304 266 239 236 230 227 227 224 237 230 217 291 189 144 97 105 80 79 184 235 212 232 228 196 194 201 194 192 195 194 196 201 202 203 200 203 206 191 201
343 325 5 316 302 291 290 261 230 228 214 221 230 220 225 185 112 85 77 54 52 19 20 334 320 320 278 256 233 195 199 196 195 197 198 200 202 206 207 212 209 214 201 198
312 309 298 293 281 279 267 247 258 252 301 275 211 190 59 32 27 60 81 51 27 5 345 318 319 300 288 267 265 258 200 206 199 203 202 204 206 209 212 215 220 225 217 204
299 289 17 340 32 253 251 337 256 99 251 205 216 168 73 43 18 19 23 15 358 336 334 326 319 322 315 299 281 261 256 214 203 205 210 208 208 214 218 216 225 224 226 219
290 265 337 27 7 329 175 223 224 212 237 317 190 66 16 32 34 17 355 339 324 336 328 328 322 319 311 302 286 268 258 246 212 204 208 215 215 219 216 215 224 224 223 227
0 293 8 41 42 18 43 275 255 199 241 346 300 97 22 14 13 360 356 346 339 338 332 326 322 320 315 310 300 278 257 245 240 213 213 215 218 219 217 215 223 222 222 227
327 11 32 32 28 32 34 31 47 310 289 0 12 62 24 11 3 356 347 343 339 337 334 328 323 319 318 313 308 296 275 250 237 232 215 215 219 220 219 218 223 226 222 221
359 63 72 63 49 38 41 40 37 38 20 355 24 359 3 1 358 359 356 342 335 332 332 328 325 321 319 315 309 302 288 288 228 230 225 221 216 220 221 221 220 222 222 223
32 105 98 90 70 58 54 46 40 39 30 24 15 28 0 357 351 2 352 345 339 333 333 330 326 326 323 319 314 309 299 295 236 225 224 226 225 217 222 224 224 221 219 219
171 175 165 47 98 64 40 40 35 31 20 22 17 22 357 354 348 7 357 349 342 338 334 331 331 330 326 322 317 313 304 298 299 221 222 226 229 222 220 222 226 222 216 215
9 6 322 50 5 316 29 28 41 30 22 10 18 351 348 351 346 13 357 352 346 341 337 338 333 326 324 324 321 312 306 299 293 259 221 224 228 226 220 220 225 224 218 220
12 33 15 35 216 42 63 19 61 39 28 12 4 357 350 342 336 5 357 351 348 349 346 338 332 324 331 327 325 317 315 312 312 287 239 219 225 225 220 218 222 223 216 218
46 9 51 63 62 142 26 350 337 333 41 7 354 356 346 338 336 10 356 352 349 353 349 339 331 325 336 340 332 335 340 346 343 348 340 313 245 216 221 215 215 221 220 220
40 68 72 65 61 43 351 329 328 170 33 353 343 357 348 347 11 354 339 342 350 353 347 340 332 336 352 349 345 356 3 0 352 341 329 312 294 249 222 215 210 218 221 225
13 31 44 53 78 81 356 339 329 57 334 321 357 6 359 2 345 312 330 342 347 338 342 343 341 353 357 359 359 8 7 2 349 346 336 330 307 274 236 216 218 220 224 226
17 338 21 34 46 49 1 347 25 318 315 353 8 2 0 314 296 326 340 339 343 347 344 353 357 358 5 10 10 12 8 -0 359 8 4 359 341 299 263 240 223 220 223 226
54 53 51 21 59 264 312 215 279 19 359 4 11 7 5 13 6 16 5 353 353 357 7 4 357 359 14 15 12 11 6 7 4 18 15 18 19 26 347 269 255 228 224 225
64 62 80 167 330 279 27 26 17 25 14 10 12 7 9 5 7 11 13 8 10 7 16 10 6 13 13 10 8 13 13 11 16 22 21 21 25 28 35 30 30 16 308 249
74 69 90 77 33 358 28 23 2 16 18 12 15 7 10 5 7 7 12 10 10 10 13 13 17 14 15 13 10 13 13 15 21 25 25 23 24 26 32 33 40 50 47 42
49 25 43 57 16 8 17 17 7 12 15 6 10 7 11 9 10 7 13 8 9 11 12 14 16 13 14 15 13 12 14 17 23 28 24 21 24 24 30 30 29 39 33 46